Weather History for Sonora, TX

Change the Weather History Date:

Wednesday, August 7, 2013

  Actual Average (KOZA) Record (KOZA)
Temperature  
Mean Temperature 90 °F -  
Max Temperature 102 °F 93 °F 102 °F (2012)
Min Temperature 78 °F 68 °F 69 °F (2012)
Cooling Degree Days 25    
Growing Degree Days 40 (Base 50)    
Moisture  
Dew Point 62 °F    
Average Humidity 43    
Maximum Humidity 65    
Minimum Humidity 24    
Precipitation  
Precipitation 0.00 in - - ()
Sea Level Pressure  
Sea Level Pressure 29.97 in    
Wind  
Wind Speed 5 mph (SSW)    
Max Wind Speed 13 mph    
Max Gust Speed 17 mph    
Visibility 8 miles    
Events Thunderstorm    
Averages and records for this station are not official NWS values.
T = Trace of Precipitation, MM = Missing Value Source: NWS Daily Summary

Daily Weather History Graph

Daily Weather History Graph

Search for Another Location

Airport:

Trip Planner

Search our weather history database for the weather conditions in past years. The results will help you decide how hot, cold, wet, or windy it might be!

Date:

Astronomy

Aug. 07, 2013 Rise Set
Actual Time 7:04 AM CDT 8:31 PM CDT
Civil Twilight 6:38 AM CDT 8:57 PM CDT
Nautical Twilight 6:07 AM CDT 9:28 PM CDT
Astronomical Twilight 5:35 AM CDT 10:00 PM CDT
Moon 7:47 AM CDT (8/7) 8:49 PM CDT (8/7)
Length of Visible Light 14h 18m
Length of Day
13h 27m
New Moon, 1% of the Moon is Illuminated
Aug 7
New Moon
Aug 14
First Quarter
Aug 20
Full
Aug 28
Last Quarter
Sep 5
New

Hourly Weather History & Observations

Time (CDT) Temp. Heat Index Dew Point Humidity Pressure Visibility Wind Dir Wind Speed Gust Speed Precip Events Conditions
12:15 AM 84.2 °F 83.5 °F 57.2 °F 40% 29.98 in 10.0 mi SSW 3.5 mph - N/A   Clear
12:35 AM 84.2 °F 83.0 °F 55.4 °F 37% 29.99 in 10.0 mi Calm Calm - N/A   Clear
12:55 AM 82.4 °F 82.0 °F 57.2 °F 42% 29.98 in 10.0 mi Calm Calm - N/A   Clear
1:15 AM 82.4 °F 82.0 °F 57.2 °F 42% 29.98 in 10.0 mi Calm Calm - N/A   Clear
1:35 AM 82.4 °F 82.0 °F 57.2 °F 42% 29.97 in 10.0 mi Calm Calm - N/A   Clear
1:55 AM 80.6 °F 80.8 °F 57.2 °F 45% 29.97 in 10.0 mi Calm Calm - N/A   Clear
2:15 AM 80.6 °F 80.8 °F 57.2 °F 45% 29.97 in 10.0 mi Calm Calm - N/A   Clear
2:35 AM 80.6 °F 80.8 °F 57.2 °F 45% 29.97 in 10.0 mi SE 4.6 mph - N/A   Clear
2:55 AM 82.4 °F 82.0 °F 57.2 °F 42% 29.97 in 10.0 mi SSE 6.9 mph - N/A   Clear
3:15 AM 82.4 °F 82.9 °F 60.8 °F 48% 29.98 in 10.0 mi South 6.9 mph - N/A   Clear
3:35 AM 80.6 °F 81.5 °F 60.8 °F 51% 29.99 in 10.0 mi South 5.8 mph - N/A   Clear
3:55 AM 82.4 °F 83.4 °F 62.6 °F 51% 29.98 in 9.0 mi South 8.1 mph - N/A   Clear
4:15 AM 82.4 °F 83.9 °F 64.4 °F 54% 29.98 in 8.0 mi South 8.1 mph - N/A   Clear
4:35 AM 82.4 °F 83.9 °F 64.4 °F 54% 29.99 in 8.0 mi South 10.4 mph - N/A   Clear
4:55 AM 80.6 °F 82.3 °F 64.4 °F 58% 29.99 in 8.0 mi South 8.1 mph - N/A   Clear
5:15 AM 80.6 °F 82.7 °F 66.2 °F 61% 29.99 in 8.0 mi South 5.8 mph - N/A   Clear
5:35 AM 80.6 °F 82.7 °F 66.2 °F 61% 29.99 in 8.0 mi South 6.9 mph - N/A   Clear
5:55 AM 80.6 °F 82.7 °F 66.2 °F 61% 29.99 in 8.0 mi South 4.6 mph - N/A   Clear
6:15 AM 78.8 °F - 66.2 °F 65% 29.99 in 8.0 mi South 3.5 mph - N/A   Clear
6:35 AM 78.8 °F - 66.2 °F 65% 30.00 in 7.0 mi Calm Calm - N/A   Clear
6:55 AM 78.8 °F - 66.2 °F 65% 30.00 in 7.0 mi SSW 3.5 mph - N/A   Clear
7:15 AM 78.8 °F - 66.2 °F 65% 30.00 in 6.0 mi South 6.9 mph - N/A   Haze
7:35 AM 78.8 °F - 66.2 °F 65% 30.01 in 6.0 mi SSW 6.9 mph - N/A   Haze
7:55 AM 78.8 °F - 66.2 °F 65% 30.01 in 5.0 mi South 5.8 mph - N/A   Haze
8:15 AM 78.8 °F - 66.2 °F 65% 30.01 in 5.0 mi South 6.9 mph - N/A   Haze
8:35 AM 80.6 °F 82.7 °F 66.2 °F 61% 30.02 in 5.0 mi South 12.7 mph 16.1 mph N/A   Haze
8:55 AM 80.6 °F 83.2 °F 68.0 °F 65% 30.02 in 4.0 mi South 10.4 mph - N/A   Haze
9:15 AM 82.4 °F 85.4 °F 68.0 °F 62% 30.01 in 5.0 mi SSW 11.5 mph 16.1 mph N/A   Haze
9:35 AM 82.4 °F 85.4 °F 68.0 °F 62% 30.02 in 4.0 mi SW 10.4 mph - N/A   Haze
9:55 AM 84.2 °F 87.3 °F 68.0 °F 58% 30.02 in 6.0 mi SSW 9.2 mph - N/A   Haze
10:15 AM 86.0 °F 89.4 °F 68.0 °F 55% 30.02 in 5.0 mi SSW 9.2 mph - N/A   Haze
10:35 AM 87.8 °F 90.4 °F 66.2 °F 49% 30.02 in 6.0 mi South 9.2 mph - N/A   Haze
10:55 AM 87.8 °F 90.4 °F 66.2 °F 49% 30.02 in 5.0 mi South 11.5 mph - N/A   Haze
11:15 AM 89.6 °F 92.2 °F 66.2 °F 46% 30.02 in 5.0 mi SSW 9.2 mph - N/A   Haze
11:35 AM 91.4 °F 94.0 °F 66.2 °F 43% 30.02 in 7.0 mi SSW 10.4 mph - N/A   Clear
11:55 AM 91.4 °F 93.2 °F 64.4 °F 41% 30.02 in 7.0 mi SW 10.4 mph - N/A   Clear
12:15 PM 93.2 °F 94.9 °F 64.4 °F 38% 30.01 in 9.0 mi SW 10.4 mph - N/A   Clear
12:35 PM 93.2 °F 94.1 °F 62.6 °F 36% 30.01 in 9.0 mi SSW 9.2 mph - N/A   Clear
12:55 PM 93.2 °F 94.1 °F 62.6 °F 36% 30.00 in 9.0 mi Calm Calm - N/A   Clear
1:15 PM 96.8 °F 98.0 °F 62.6 °F 32% 29.99 in 9.0 mi SW 5.8 mph - N/A   Clear
1:35 PM 96.8 °F 98.0 °F 62.6 °F 32% 29.98 in 7.0 mi WSW 9.2 mph - N/A   Clear
1:55 PM 98.6 °F 100.0 °F 62.6 °F 30% 29.98 in 3.0 mi SSW 5.8 mph - N/A   Haze
2:15 PM 98.6 °F 99.4 °F 60.8 °F 29% 29.98 in 7.0 mi South 5.8 mph - N/A   Clear
2:35 PM 98.6 °F 99.4 °F 60.8 °F 29% 29.97 in 9.0 mi WNW 11.5 mph 16.1 mph N/A   Clear
2:55 PM 98.6 °F 99.4 °F 60.8 °F 29% 29.96 in 9.0 mi WSW 8.1 mph - N/A   Clear
3:15 PM 98.6 °F 99.4 °F 60.8 °F 29% 29.95 in 7.0 mi Calm Calm - N/A   Clear
3:35 PM 100.4 °F 100.2 °F 59.0 °F 25% 29.94 in 10.0 mi NNW 4.6 mph - N/A   Clear
3:55 PM 100.4 °F 99.7 °F 57.2 °F 24% 29.93 in 6.0 mi SSW 6.9 mph - N/A   Haze
4:15 PM 100.4 °F 99.7 °F 57.2 °F 24% 29.92 in 8.0 mi SSW 4.6 mph - N/A   Clear
4:35 PM 100.4 °F 100.2 °F 59.0 °F 25% 29.91 in 9.0 mi ESE 9.2 mph - N/A   Clear
4:55 PM 100.4 °F 100.2 °F 59.0 °F 25% 29.90 in 9.0 mi SW 9.2 mph - N/A   Clear
5:15 PM 100.4 °F 99.7 °F 57.2 °F 24% 29.89 in 10.0 mi East 3.5 mph - N/A   Clear
5:35 PM 100.4 °F 99.7 °F 57.2 °F 24% 29.89 in 9.0 mi SSE 6.9 mph - N/A   Clear
5:55 PM 100.4 °F 99.7 °F 57.2 °F 24% 29.88 in 10.0 mi South 8.1 mph - N/A   Clear
6:15 PM 100.4 °F 99.7 °F 57.2 °F 24% 29.88 in 10.0 mi South 10.4 mph - N/A   Clear
6:35 PM 102.2 °F 102.4 °F 59.0 °F 24% 29.88 in 9.0 mi South 11.5 mph - N/A   Clear
6:55 PM 98.6 °F 99.4 °F 60.8 °F 29% 29.88 in 10.0 mi South 11.5 mph 17.3 mph N/A   Clear
7:15 PM 96.8 °F 95.8 °F 57.2 °F 27% 29.88 in 10.0 mi South 9.2 mph 16.1 mph N/A Thunderstorm Clear
7:35 PM 96.8 °F 95.8 °F 57.2 °F 27% 29.89 in 9.0 mi SSW 8.1 mph - N/A Thunderstorm Clear
7:55 PM 93.2 °F 93.3 °F 60.8 °F 34% 29.90 in 8.0 mi SW 4.6 mph - N/A   Clear
8:15 PM 91.4 °F 90.7 °F 59.0 °F 34% 29.91 in 8.0 mi South 9.2 mph - N/A   Clear
8:35 PM 91.4 °F 90.7 °F 59.0 °F 34% 29.93 in 10.0 mi West 8.1 mph - N/A   Clear
8:55 PM 91.4 °F 91.4 °F 60.8 °F 36% 29.93 in 10.0 mi NW 8.1 mph - N/A Thunderstorm Clear
9:15 PM 91.4 °F 91.4 °F 60.8 °F 36% 29.94 in 9.0 mi ENE 3.5 mph - N/A Thunderstorm Thunderstorm
9:35 PM 87.8 °F 87.6 °F 60.8 °F 40% 29.95 in 9.0 mi NE 5.8 mph - N/A Thunderstorm Clear
9:55 PM 86.0 °F 86.6 °F 62.6 °F 45% 29.96 in 10.0 mi North 4.6 mph - N/A   Clear
10:15 PM 84.2 °F 85.0 °F 62.6 °F 48% 29.97 in 10.0 mi North 5.8 mph - N/A Thunderstorm Clear
10:35 PM 84.2 °F 85.0 °F 62.6 °F 48% 29.98 in 10.0 mi North 5.8 mph - N/A Thunderstorm Clear
10:55 PM 84.2 °F 85.0 °F 62.6 °F 48% 29.99 in 9.0 mi NNE 9.2 mph - N/A   Clear
11:15 PM 84.2 °F 85.0 °F 62.6 °F 48% 29.98 in 10.0 mi NE 4.6 mph - N/A   Clear
11:35 PM 84.2 °F 85.0 °F 62.6 °F 48% 29.99 in 10.0 mi Calm Calm - N/A   Clear
11:55 PM 82.4 °F 83.9 °F 64.4 °F 54% 29.99 in 10.0 mi ENE 6.9 mph - N/A   Clear